• In Belarus
  • List of Countries
  • For 7 days
  • Water Temperature
  • Satellite Maps
  • Weather Map
  • Weather Widgets
  • user-avatar
    Login

    Hourly Weather Kipungo

    Today, 21 August, Monday

    Time Temperature Precipitation Wind Pressure Humidity
    00:00 +20°C° 0 mm 1 mps 655 mmHg 24%
    01:00 +19°C° 0 mm 1 mps 655 mmHg 24%
    02:00 +18°C° 0 mm 1 mps 654 mmHg 24%
    03:00 +18°C° 0 mm 1 mps 654 mmHg 25%
    04:00 +16°C° 0 mm 1 mps 654 mmHg 25%
    05:00 +16°C° 0 mm 1 mps 654 mmHg 25%
    06:00 +16°C° 0 mm 1 mps 654 mmHg 25%
    07:00 +18°C° 0 mm 1 mps 655 mmHg 24%
    08:00 +21°C° 0 mm 2 mps 656 mmHg 21%
    09:00 +26°C° 0 mm 3 mps 656 mmHg 18%
    10:00 +29°C° 0 mm 4 mps 657 mmHg 15%
    11:00 +31°C° 0 mm 3 mps 657 mmHg 13%
    12:00 +33°C° 0 mm 3 mps 657 mmHg 11%
    13:00 +34°C° 0 mm 3 mps 657 mmHg 11%
    14:00 +34°C° 0 mm 3 mps 656 mmHg 10%
    15:00 +34°C° 0 mm 3 mps 656 mmHg 10%
    16:00 +34°C° 0 mm 3 mps 655 mmHg 9%
    17:00 +30°C° 0 mm 2 mps 655 mmHg 11%
    18:00 +27°C° 0 mm 2 mps 655 mmHg 14%
    19:00 +24°C° 0 mm 1 mps 654 mmHg 16%
    20:00 +23°C° 0 mm 1 mps 654 mmHg 17%
    21:00 +22°C° 0 mm 1 mps 654 mmHg 18%
    22:00 +21°C° 0 mm 1 mps 655 mmHg 19%
    23:00 +20°C° 0 mm 1 mps 654 mmHg 20%

    Tomorrow, 22 August, Tuesday

    Time Temperature Precipitation Wind Pressure Humidity
    00:00 +19°C° 0 mm 1 mps 654 mmHg 22%
    01:00 +19°C° 0 mm 1 mps 654 mmHg 23%
    02:00 +18°C° 0 mm 1 mps 653 mmHg 24%
    03:00 +16°C° 0 mm 1 mps 653 mmHg 25%
    04:00 +16°C° 0 mm 1 mps 653 mmHg 27%
    05:00 +16°C° 0 mm 1 mps 653 mmHg 27%
    06:00 +16°C° 0 mm 1 mps 654 mmHg 28%
    07:00 +16°C° 0 mm 1 mps 654 mmHg 28%
    08:00 +20°C° 0 mm 2 mps 655 mmHg 24%
    09:00 +25°C° 0 mm 3 mps 656 mmHg 20%
    10:00 +29°C° 0 mm 4 mps 657 mmHg 16%
    11:00 +32°C° 0 mm 4 mps 656 mmHg 14%
    12:00 +33°C° 0 mm 4 mps 656 mmHg 12%
    13:00 +35°C° 0 mm 3 mps 655 mmHg 10%
    14:00 +35°C° 0 mm 3 mps 655 mmHg 9%
    15:00 +35°C° 0 mm 3 mps 654 mmHg 9%
    16:00 +35°C° 0 mm 3 mps 654 mmHg 8%
    17:00 +31°C° 0 mm 2 mps 653 mmHg 10%
    18:00 +28°C° 0 mm 1 mps 653 mmHg 12%
    19:00 +25°C° 0 mm 1 mps 653 mmHg 14%
    20:00 +24°C° 0 mm 1 mps 653 mmHg 15%
    21:00 +23°C° 0 mm 1 mps 653 mmHg 16%
    22:00 +22°C° 0 mm 1 mps 653 mmHg 18%
    23:00 +21°C° 0 mm 1 mps 653 mmHg 19%

    Day after tomorrow, 23 August, Wednesday

    Time Temperature Precipitation Wind Pressure Humidity
    00:00 +20°C° 0 mm 1 mps 653 mmHg 20%
    01:00 +19°C° 0 mm 1 mps 652 mmHg 21%
    02:00 +19°C° 0 mm 1 mps 652 mmHg 23%
    03:00 +18°C° 0 mm 1 mps 652 mmHg 24%
    04:00 +15°C° 0 mm 0 mps 651 mmHg 25%
    05:00 +15°C° 0 mm 0 mps 652 mmHg 25%
    06:00 +16°C° 0 mm 0 mps 652 mmHg 25%
    07:00 +16°C° 0 mm 0 mps 653 mmHg 25%
    08:00 +22°C° 0 mm 1 mps 654 mmHg 21%
    09:00 +26°C° 0 mm 2 mps 655 mmHg 17%
    10:00 +30°C° 0 mm 3 mps 656 mmHg 13%
    11:00 +33°C° 0 mm 3 mps 655 mmHg 12%
    12:00 +35°C° 0 mm 3 mps 655 mmHg 10%
    13:00 +37°C° 0 mm 2 mps 655 mmHg 8%
    14:00 +37°C° 0 mm 2 mps 654 mmHg 8%
    15:00 +37°C° 0 mm 2 mps 654 mmHg 8%
    16:00 +35°C° 0 mm 1 mps 653 mmHg 7%
    17:00 +32°C° 0 mm 1 mps 653 mmHg 11%
    18:00 +29°C° 0 mm 1 mps 653 mmHg 14%
    19:00 +26°C° 0 mm 1 mps 653 mmHg 17%
    20:00 +24°C° 0 mm 1 mps 653 mmHg 27%
    21:00 +23°C° 0 mm 2 mps 653 mmHg 36%
    22:00 +20°C° 0 mm 2 mps 654 mmHg 45%
    23:00 +19°C° 0 mm 2 mps 653 mmHg 51%

    24 August, Thursday

    Time Temperature Precipitation Wind Pressure Humidity
    00:00 +19°C° 0 mm 2 mps 653 mmHg 57%
    01:00 +18°C° 0 mm 2 mps 653 mmHg 63%
    02:00 +18°C° 0 mm 1 mps 652 mmHg 65%
    03:00 +16°C° 0 mm 1 mps 652 mmHg 67%
    04:00 +16°C° 0 mm 1 mps 652 mmHg 69%
    05:00 +16°C° 0 mm 1 mps 652 mmHg 66%
    06:00 +18°C° 0 mm 1 mps 653 mmHg 62%
    07:00 +18°C° 0 mm 1 mps 653 mmHg 59%
    08:00 +22°C° 0 mm 1 mps 654 mmHg 45%
    09:00 +26°C° 0 mm 2 mps 655 mmHg 32%
    10:00 +30°C° 0 mm 2 mps 656 mmHg 18%
    11:00 +32°C° 0 mm 2 mps 656 mmHg 15%
    12:00 +35°C° 0 mm 2 mps 655 mmHg 13%
    13:00 +36°C° 0 mm 1 mps 655 mmHg 10%
    14:00 +36°C° 0 mm 1 mps 655 mmHg 10%
    15:00 +35°C° 0 mm 1 mps 654 mmHg 10%
    16:00 +35°C° 0 mm 1 mps 653 mmHg 10%
    17:00 +32°C° 0 mm 2 mps 653 mmHg 15%
    18:00 +29°C° 0 mm 2 mps 653 mmHg 21%
    19:00 +26°C° 0 mm 2 mps 653 mmHg 26%
    20:00 +24°C° 0 mm 2 mps 653 mmHg 36%
    21:00 +23°C° 0 mm 2 mps 653 mmHg 46%
    22:00 +20°C° 0 mm 2 mps 654 mmHg 55%
    23:00 +19°C° 0 mm 2 mps 653 mmHg 60%

    25 August, Friday

    Time Temperature Precipitation Wind Pressure Humidity
    00:00 +18°C° 0 mm 2 mps 653 mmHg 64%
    01:00 +17°C° 0 mm 2 mps 652 mmHg 68%
    02:00 +18°C° 0 mm 1 mps 652 mmHg 70%
    03:00 +16°C° 0 mm 1 mps 652 mmHg 73%
    04:00 +16°C° 0 mm 1 mps 652 mmHg 75%
    05:00 +16°C° 0 mm 1 mps 652 mmHg 72%
    06:00 +16°C° 0 mm 1 mps 653 mmHg 68%
    07:00 +18°C° 0 mm 1 mps 654 mmHg 65%
    08:00 +22°C° 0 mm 1 mps 654 mmHg 49%
    09:00 +25°C° 0 mm 2 mps 655 mmHg 33%
    10:00 +29°C° 0 mm 3 mps 656 mmHg 17%
    11:00 +31°C° 0 mm 3 mps 656 mmHg 15%
    12:00 +34°C° 0 mm 2 mps 655 mmHg 12%
    13:00 +36°C° 0 mm 2 mps 655 mmHg 9%
    14:00 +36°C° 0 mm 2 mps 654 mmHg 9%
    15:00 +36°C° 0 mm 2 mps 654 mmHg 9%
    16:00 +35°C° 0 mm 1 mps 653 mmHg 9%
    17:00 +32°C° 0 mm 1 mps 653 mmHg 12%
    18:00 +29°C° 0 mm 1 mps 653 mmHg 16%
    19:00 +26°C° 0 mm 1 mps 653 mmHg 19%
    20:00 +24°C° 0 mm 2 mps 653 mmHg 28%
    21:00 +23°C° 0 mm 2 mps 653 mmHg 37%
    22:00 +21°C° 0 mm 2 mps 653 mmHg 46%
    23:00 +20°C° 0 mm 2 mps 653 mmHg 50%

    26 August, Saturday

    Time Temperature Precipitation Wind Pressure Humidity
    00:00 +19°C° 0 mm 2 mps 652 mmHg 55%
    01:00 +19°C° 0 mm 1 mps 652 mmHg 59%
    02:00 +18°C° 0 mm 1 mps 652 mmHg 61%
    03:00 +16°C° 0 mm 1 mps 652 mmHg 63%
    04:00 +15°C° 0 mm 0 mps 652 mmHg 65%
    05:00 +16°C° 0 mm 1 mps 652 mmHg 62%
    06:00 +16°C° 0 mm 1 mps 653 mmHg 58%
    07:00 +18°C° 0 mm 1 mps 653 mmHg 54%
    08:00 +22°C° 0 mm 1 mps 654 mmHg 40%
    09:00 +26°C° 0 mm 2 mps 655 mmHg 25%
    10:00 +29°C° 0 mm 3 mps 656 mmHg 11%
    11:00 +31°C° 0 mm 3 mps 656 mmHg 10%
    12:00 +34°C° 0 mm 2 mps 655 mmHg 8%
    13:00 +36°C° 0 mm 2 mps 655 mmHg 7%
    14:00 +36°C° 0 mm 2 mps 654 mmHg 7%
    15:00 +36°C° 0 mm 2 mps 654 mmHg 7%
    16:00 +36°C° 0 mm 2 mps 654 mmHg 7%
    17:00 +32°C° 0 mm 2 mps 653 mmHg 9%
    18:00 +29°C° 0 mm 1 mps 653 mmHg 12%
    19:00 +26°C° 0 mm 1 mps 653 mmHg 14%
    20:00 +24°C° 0 mm 2 mps 653 mmHg 22%
    21:00 +23°C° 0 mm 2 mps 653 mmHg 30%
    22:00 +21°C° 0 mm 2 mps 653 mmHg 38%
    23:00 +20°C° 0 mm 2 mps 653 mmHg 43%
    Show more